Regional Weather Roundup
Issued by NWS Wilmington, NC

Home | Current Version | Previous Version | Text Only | Print | Product List | Glossary On
Versions: 1 2 3 4 5 6 7 8 9 10 11 12 13 14 15 16 17 18 19 20 21 22 23 24 25 26 27 28 29 30 31 32 33 34 35 36 37 38 39 40 41 42 43 44 45 46 47 48 49 50
000
ASUS42 KILM 010510
RWRILM
RWRILM
REGIONAL HOURLY WEATHER ROUNDUP
NATIONAL WEATHER SERVICE WILMINGTON NC
1200 AM EST SUN FEB 01 2015

NOTE: "FAIR" INDICATES FEW OR NO CLOUDS BELOW 12,000 FEET WITH NO
SIGNIFICANT WEATHER AND/OR OBSTRUCTIONS TO VISIBILITY.

...............WFO WILMINGTON COUNTY WARNING AREA...............

......COASTAL NC AND SC COUNTIES......

CITY           SKY/WX    TMP DP  RH WIND       PRES   REMARKS
WILMINGTON     CLEAR     32  26  78 CALM      30.33F
SOUTHPORT      CLEAR     32  28  86 CALM      30.34S
N MYRTLE BEACH CLEAR     33  28  81 CALM      30.33F
MYRTLE BEACH   CLEAR     34  27  75 SW3       30.35F

......INLAND NC AND SC COUNTIES.......

CITY           SKY/WX    TMP DP  RH WIND       PRES   REMARKS
LUMBERTON      CLEAR     31  24  75 CALM      30.31F
ELIZABETHTOWN  CLEAR     35  22  61 SW3       30.32S
WHITEVILLE     CLEAR     35  24  64 CALM      30.32F
FLORENCE       CLEAR     32  23  69 CALM      30.32S
DARLINGTON     FAIR      32  25  74 SW3       30.32F

....................REST OF NORTH CAROLINA......................

.........EASTERN NC.........

CITY           SKY/WX    TMP DP  RH WIND       PRES   REMARKS
CAPE HATTERAS  CLEAR     29  24  82 W5        30.32F WCI  24
JACKSONVILLE   CLEAR     28  21  74 SW5       30.32F WCI  23
MOREHEAD CITY  CLEAR     29  22  75 CALM      30.33F
KENANSVILLE    CLEAR     31  19  59 CALM      30.32F
NEW BERN       CLEAR     29  20  69 CALM      30.32F
ELIZABETH CITY CLEAR     30  22  72 S7        30.29F WCI  23

.........CENTRAL NC.........

CITY           SKY/WX    TMP DP  RH WIND       PRES   REMARKS
RALEIGH DURHAM MOCLDY    33  17  51 CALM      30.28S
ROCKY MOUNT    CLEAR     27  20  75 CALM      30.29F
ROANOKE RAPIDS NOT AVBL
FAYETTEVILLE   CLEAR     31  21  66 SW5       30.29F WCI  26
HOFFMAN        CLEAR     27  23  84 N1        30.31S

.........WESTERN NC.........

CITY           SKY/WX    TMP DP  RH WIND       PRES   REMARKS
CHARLOTTE      CLOUDY    40  17  39 SW3       30.27F
GREENSBORO     CLOUDY    38  14  37 SW5       30.23F WCI  34
HICKORY        NOT AVBL
BOONE          NOT AVBL
ASHEVILLE      NOT AVBL

.....................REST OF SOUTH CAROLINA.....................

.........EASTERN SC.........

CITY           SKY/WX    TMP DP  RH WIND       PRES   REMARKS
CHARLESTON     MOCLDY    39  29  67 CALM      30.33F
BEAUFORT MCAS  PTCLDY    41  32  70 CALM      30.33F
HILTON HEAD    MOCLDY    43  34  70 CALM      30.34F

.........CENTRAL SC.........

CITY           SKY/WX    TMP DP  RH WIND       PRES   REMARKS
COLUMBIA       CLOUDY    40  27  59 CALM      30.30F
ORANGEBURG     MOCLDY    39  27  62 SW5       30.32F
SUMTER SHAW    CLOUDY    39  23  53 S5        30.29F

.........WESTERN SC.........

CITY           SKY/WX    TMP DP  RH WIND       PRES   REMARKS
GREENVILLE     NOT AVBL
ROCK HILL      CLOUDY    34  22  61 SW7       30.28F WCI  28
ANDERSON       CLOUDY    40  29  64 CALM      30.28F
CLEMSON        NOT AVBL
GREENWOOD      CLOUDY    40  24  53 CALM      30.30F


...................COASTAL AND OFFSHORE REPORTS..................

................LOCAL PIERS AND NC RESERVE................


STATION/POSITION TIME  SKY/WX   TEMP    WIND        PRES    VSBY
                                AIR SEA DIR/SP/G
                 (UTC)          (F)     (DEG/KT/KT) (MB)    (MI)
JOHNY MRCER PIER 0500            42 53  250/  5/  6 1026.3F
NC RESRV MASNBRO 0400            38     240/  1     1027.0S
OCEAN CREST PIER 0500            42 51  270/  4/  5 1026.4F
SPRINGMAID  PIER 0500            42 49  210/  5/  5 1027.2F


................COASTAL AND OFFSHORE BUOYS................


STATION/POSITION TIME  SKY/WX   TEMP    WIND        PRES    VSBY
                                AIR SEA DIR/SP/G
                 (UTC)          (F)     (DEG/KT/KT) (MB)    (MI)
DIMNDSHOAL 41025 0500            47 71  290/ 14/ 17 1026.3F
WVE H/P(F/S)=  6/12 WND WVE H/P(F/S)=  2/ 3 SWL H/P/D(F/S/D)=  5/ 50/12

CAPE LOOKOUT     0400            44      CALM  /  1 1027.0F
ONSLOW BAY 41036 NOT AVBL
5 WRITEBCH 41038 0400            48 51  230/  8/ 12 1027.3F
MASONBORO  41110 0500               51                N/A
WVE H/P(F/S)=  2/11 WND WVE H/P(F/S)=  2/10 SWL H/P/D(F/S/D)=  2/100/11

WILM HARBR 41108 0500               52                N/A
WVE H/P(F/S)=  2/11 WND WVE H/P(F/S)=  2/10

27WRITEBCH 41037 NOT AVBL
FRYING PAN 41013 0500            50 63  270/  4/  6 1028.2F
WVE H/P(F/S)=  2/ 8 SWL H/P/D(F/S/D)=  2/ 80/ 8

SUNST NRSH 41024 0400            48     250/  8/  8   N/A
CAPRS NRSH 41029 0400            49     240/  6/  6   N/A
EDISTO     41004 0500            53 69  210/  4/  6 1027.4F
WVE H/P(F/S)=  4/ 9 WND WVE H/P(F/S)=  2/ 3 SWL H/P/D(F/S/D)=  3/ 9



..........OFFSHORE BUOYS BEYOND 100 NM OFFSHORE...........
.....IN A TRIANGLE---HAT TO BERMUDA TO BAHAMAS TO HAT.....


STATION/POSITION TIME  SKY/WX   TEMP    WIND        PRES    VSBY
                                AIR SEA DIR/SP/G
                 (UTC)          (F)     (DEG/KT/KT) (MB)    (MI)
150E HAT   41001 NOT AVBL
W BERMUDA  41048 0437            57 70  310/ 25/ 31 1021.3F
WVE H/P(F/S)= 16/11 WND WVE H/P(F/S)= 11/ 5 SWL H/P/D(F/S/D)= 11/340/11

ATLANTIC S 41049 0438            69 74  310/ 23/ 31 1017.4R
WVE H/P(F/S)= 11/ 9 WND WVE H/P(F/S)= 11/ 9

E BAHAMAS  41046 0357            72 78   30/ 16/ 19 1020.7
WVE H/P(F/S)=  8/ 8 WND WVE H/P(F/S)=  5/ 6 SWL H/P/D(F/S/D)=  5/350/ 8

NE BAHAMAS 41047 0400            64 75   10/ 17/ 25 1024.0F
WVE H/P(F/S)= 14/11 WND WVE H/P(F/S)=  8/ 6 SWL H/P/D(F/S/D)= 11/ 10/11

120E CANVRL41010 0500            63 73   60/ 10/ 16 1026.3F
WVE H/P(F/S)=  6/ 9 WND WVE H/P(F/S)=  2/ 4 SWL H/P/D(F/S/D)=  5/ 10/ 9


END


USA.gov is the U.S. government's official web portal to all federal, state and local government web resources and services.